Naples, FL

6:12 PM EST on January 18, 2017 (GMT -0500)
Naples Municipal

Weather History for KAPF - November, 2013

Change the Weather History Date:

Saturday, November 9, 2013

  Actual Average Record
Temperature  
Mean Temperature 77 °F 73 °F  
Max Temperature 83 °F 82 °F 91 °F (1946)
Min Temperature 70 °F 64 °F 45 °F (1976)
Degree Days  
Heating Degree Days 0 0  
Month to date heating degree days 0 0  
Since 1 July heating degree days 0 1  
Cooling Degree Days 12 8  
Month to date cooling degree days 106 84  
Year to date cooling degree days 3747 3679  
Growing Degree Days 26 (Base 50)    
Moisture  
Dew Point 71 °F    
Average Humidity 85    
Maximum Humidity 100    
Minimum Humidity 69    
Precipitation  
Precipitation T in 0.07 in 3.74 in (1983)
Month to date precipitation T 0.87  
Year to date precipitation 48.22 49.27  
Snow  
Snow 0.00 in - - ()
Month to date snowfall 0.0  
Since 1 July snowfall 0.0  
Since 1 September snowfall 0.0  
Snow Depth 0.00 in    
Sea Level Pressure  
Sea Level Pressure 30.07 in    
Wind  
Wind Speed 12 mph (ENE)    
Max Wind Speed 25 mph    
Max Gust Speed 31 mph    
Visibility 9 miles    
Events Rain    
T = Trace of Precipitation, MM = Missing Value Source: NWS Daily Summary

Daily Weather History Graph

Daily Weather History Graph

Search for Another Location

Airport or City:

Trip Planner

Search our weather history database for the weather conditions in past years. The results will help you decide how hot, cold, wet, or windy it might be!

Date:

Astronomy

Nov. 09, 2013 Rise Set
Actual Time 6:41 AM EST 5:40 PM EST
Civil Twilight 6:17 AM EST 6:04 PM EST
Nautical Twilight 5:49 AM EST 6:31 PM EST
Astronomical Twilight 5:22 AM EST 6:59 PM EST
Moon 12:23 PM EST (11/9) No Moon Set
Length of Visible Light 11h 46m
Length of Day
10h 58m
Waxing Crescent, 44% of the Moon is Illuminated
Nov 9
Waxing Crescent
Nov 10
First Quarter
Nov 17
Full
Nov 25
Last Quarter
Dec 2
New

Hourly Weather History & Observations

Time (EST) Temp. Heat Index Dew Point Humidity Pressure Visibility Wind Dir Wind Speed Gust Speed Precip Events Conditions
12:53 AM 73.0 °F - 68.0 °F 84% 30.04 in 10.0 mi NE 6.9 mph - N/A   Overcast
1:53 AM 72.0 °F - 66.9 °F 84% 30.03 in 10.0 mi NE 10.4 mph - N/A   Overcast
2:53 AM 72.0 °F - 66.9 °F 84% 30.03 in 10.0 mi NE 9.2 mph - N/A   Mostly Cloudy
3:53 AM 71.1 °F - 66.9 °F 87% 30.03 in 10.0 mi NE 10.4 mph - N/A   Overcast
4:53 AM 71.1 °F - 68.0 °F 90% 30.04 in 5.0 mi ENE 8.1 mph - N/A   Overcast
5:00 AM 71.6 °F - 68.0 °F 88% 30.05 in 6.0 mi ENE 4.6 mph - N/A   Overcast
5:53 AM 70.0 °F - 69.1 °F 97% 30.05 in 7.0 mi NE 8.1 mph - 0.00 in   Overcast
6:00 AM 69.8 °F - 69.8 °F 100% 30.05 in 8.0 mi NE 6.9 mph - N/A   Overcast
6:40 AM 71.6 °F - 69.8 °F 94% 30.06 in 8.0 mi NNE 6.9 mph - N/A   Overcast
6:53 AM 71.1 °F - 69.1 °F 93% 30.06 in 8.0 mi NE 6.9 mph - N/A   Overcast
7:17 AM 71.6 °F - 69.8 °F 94% 30.07 in 8.0 mi NE 9.2 mph - N/A   Overcast
7:50 AM 71.6 °F - 69.8 °F 94% 30.09 in 8.0 mi NE 10.4 mph - N/A   Overcast
7:53 AM 72.0 °F - 70.0 °F 93% 30.09 in 8.0 mi NE 10.4 mph - N/A   Overcast
8:00 AM 73.4 °F - 69.8 °F 88% 30.09 in 8.0 mi NE 11.5 mph - N/A   Overcast
8:39 AM 75.2 °F - 71.6 °F 89% 30.09 in 8.0 mi NE 12.7 mph - N/A   Mostly Cloudy
8:53 AM 75.0 °F - 71.1 °F 87% 30.10 in 9.0 mi ENE 13.8 mph 23.0 mph N/A   Mostly Cloudy
9:43 AM 78.8 °F - 71.6 °F 78% 30.10 in 10.0 mi ENE 12.7 mph 21.9 mph N/A   Mostly Cloudy
9:53 AM 77.0 °F - 71.1 °F 82% 30.10 in 10.0 mi ENE 16.1 mph 20.7 mph N/A   Overcast
10:53 AM 82.0 °F 86.7 °F 72.0 °F 71% 30.09 in 10.0 mi East 17.3 mph 23.0 mph N/A   Mostly Cloudy
11:25 AM 82.4 °F 87.2 °F 71.6 °F 70% 30.08 in 10.0 mi ENE 18.4 mph - N/A   Mostly Cloudy
11:53 AM 80.1 °F 83.8 °F 72.0 °F 76% 30.08 in 10.0 mi ENE 17.3 mph 25.3 mph N/A   Mostly Cloudy
12:53 PM 82.0 °F 86.3 °F 71.1 °F 69% 30.06 in 10.0 mi ENE 13.8 mph 21.9 mph N/A   Overcast
1:23 PM 78.8 °F - 73.4 °F 83% 30.05 in 8.0 mi ENE 18.4 mph 25.3 mph 0.00 in Rain Light Rain
1:33 PM 78.8 °F - 71.6 °F 78% 30.05 in 10.0 mi ENE 21.9 mph 31.1 mph 0.00 in   Overcast
1:53 PM 80.1 °F 83.8 °F 72.0 °F 76% 30.05 in 10.0 mi ENE 21.9 mph - 0.00 in   Mostly Cloudy
2:04 PM 78.8 °F - 71.6 °F 78% 30.05 in 10.0 mi ENE 15.0 mph - N/A   Mostly Cloudy
2:20 PM 77.0 °F - 73.4 °F 89% 30.06 in 2.5 mi ENE 15.0 mph - N/A   Mist
2:30 PM 77.0 °F - 73.4 °F 89% 30.05 in 7.0 mi ENE 13.8 mph - N/A   Mostly Cloudy
2:53 PM 78.1 °F - 73.0 °F 84% 30.04 in 9.0 mi ENE 16.1 mph - N/A   Overcast
3:53 PM 79.0 °F - 71.1 °F 77% 30.05 in 10.0 mi ENE 17.3 mph 24.2 mph N/A   Overcast
4:49 PM 77.0 °F - 71.6 °F 83% 30.05 in 10.0 mi ENE 15.0 mph 21.9 mph N/A   Mostly Cloudy
4:53 PM 77.0 °F - 71.1 °F 82% 30.05 in 10.0 mi ENE 16.1 mph - N/A   Mostly Cloudy
5:35 PM 75.2 °F - 71.6 °F 89% 30.07 in 10.0 mi ENE 12.7 mph - N/A   Scattered Clouds
5:53 PM 75.0 °F - 71.1 °F 87% 30.07 in 10.0 mi ENE 13.8 mph - N/A   Scattered Clouds
6:00 PM 75.2 °F - 71.6 °F 89% 30.07 in 10.0 mi NE 12.7 mph - N/A   Mostly Cloudy
6:53 PM 73.9 °F - 71.1 °F 91% 30.09 in 10.0 mi NE 13.8 mph - N/A   Mostly Cloudy
7:05 PM 73.4 °F - 71.6 °F 94% 30.09 in 10.0 mi NE 12.7 mph - N/A   Scattered Clouds
7:53 PM 73.0 °F - 71.1 °F 93% 30.09 in 10.0 mi ENE 10.4 mph - N/A   Clear
8:53 PM 72.0 °F - 70.0 °F 93% 30.11 in 9.0 mi ENE 10.4 mph - N/A   Clear
9:53 PM 72.0 °F - 70.0 °F 93% 30.11 in 9.0 mi ENE 9.2 mph - N/A   Clear
10:53 PM 72.0 °F - 70.0 °F 93% 30.11 in 10.0 mi NE 8.1 mph - N/A   Clear
11:53 PM 72.0 °F - 70.0 °F 93% 30.09 in 9.0 mi ENE 6.9 mph - N/A   Partly Cloudy